Regional Weather Roundup
Issued by NWS

Home | Current Version | Previous Version | Graphics & Text | Print | Product List | Glossary Off
Versions: 1 2 3 4 5 6 7 8 9 10 11 12 13 14 15 16 17 18 19 20 21 22 23 24 25 26 27 28 29 30 31 32 33 34 35 36 37 38 39 40 41 42 43 44 45 46 47 48 49 50

000
ASUS43 KDTX 261610
RWRMI
MICHIGAN HOURLY REGIONAL WEATHER ROUNDUP
NATIONAL WEATHER SERVICE DETROIT/PONTIAC MI
ISSUED BY NATIONAL WEATHER SERVICE GRAND RAPIDS MI
1200 PM EDT WED JUL 26 2017

NOTE: "FAIR" INDICATES FEW OR NO CLOUDS BELOW 12,000 FEET WITH NO
SIGNIFICANT WEATHER AND/OR OBSTRUCTION TO VISIBILITY.

MIZ047>049-052>055-059>063-066>070-074>076-081>083-261700-
SOUTHEAST LOWER MICHIGAN

CITY           SKY/WX    TMP DP  RH WIND       PRES   REMARKS
ADRIAN         CLOUDY    74  63  68 S9        30.16F
ALMA           CLOUDY    74  61  65 S15G23    30.09F
ANN ARBOR      PTSUNNY   74  63  68 S10       30.14F
BAD AXE        PTSUNNY   72  62  70 SW14      30.08F
DETROIT CITY   PTSUNNY   75  61  61 SW12      30.14F
DETROIT        CLOUDY    76  62  62 SW10      30.15F
FLINT          MOSUNNY   74  62  66 SW12      30.12F
GROSSE ILE     CLOUDY    74  62  67 S10       30.14F
HILLSDALE      CLOUDY    73  61  64 S6        30.15F
HOWELL         PTSUNNY   74  62  66 S8        30.14F

CITY           SKY/WX    TMP DP  RH WIND       PRES   REMARKS
JACKSON        MOSUNNY   75  60  59 S12       30.13F
LANSING        CLOUDY    75  61  61 S10       30.12F
MASON          CLOUDY    73  62  68 SW6       30.13F
MONROE         MOSUNNY   75  62  64 S9        30.14F
MT. CLEMENS    CLOUDY    75  64  67 S8        30.11F
PONTIAC        CLOUDY    74  61  63 S13       30.13F
PORT HOPE        N/A     71  60  68 S12G18    30.04F
PORT HURON     PTSUNNY   75  63  64 S8G16     30.13F
TRI CITIES     CLOUDY    75  64  68 S15       30.08F
YPSILANTI      PTSUNNY   76  64  66 S9        30.15F
$$
MIZ043>046-050>051-056>058-064>065-071>073-077>080-261700-
SOUTHWEST LOWER MICHIGAN

CITY           SKY/WX    TMP DP  RH WIND       PRES   REMARKS
BATTLE CREEK   PTSUNNY   76  64  66 S12       30.12F
BENTON HARBOR  CLOUDY    77  63  61 S8        30.09F
BIG RAPIDS     PTSUNNY   72  61  67 SW13      30.07S
COLDWATER      PTSUNNY   75  62  63 SW7       30.14F
HOLLAND        CLOUDY    77  63  61 SW13      30.10S
GRAND RAPIDS   CLOUDY    77  63  61 S14       30.10F
KALAMAZOO      MOSUNNY   76  61  59 S12       30.11F
MARSHALL       MOSUNNY   76  63  64 SW7       30.12F
MOUNT PLEASANT CLOUDY    76  60  57 SW8       30.07S
MUSKEGON       CLOUDY    75  66  73 S14G21    30.07F
STURGIS        CLOUDY    74  64  71 S7        30.14S
$$
MIZ016>042-261700-
NORTHERN LOWER MICHIGAN

CITY           SKY/WX    TMP DP  RH WIND       PRES   REMARKS
ALPENA         CLOUDY    66  63  90 S8        30.02F
BEAVER ISLAND  LGT RAIN  67  65  93 SW15G22   29.98S
BELLAIRE       CLOUDY    70  63  78 SW5       30.01S
CADILLAC       CLOUDY    75  62  64 SW15      30.05S
CHARLEVOIX     CLOUDY    71  65  80 SW13G18   30.02S
GAYLORD        CLOUDY    69  60  73 SW18G25   30.03F
HOUGHTON LAKE  CLOUDY    70  61  73 SW10      30.07F
MANISTEE       CLOUDY    73  65  75 SW6         N/A
OSCODA         CLOUDY    71  63  76 SW14      30.05F
PELLSTON       CLOUDY    70  63  78 SW8       29.99R
TRAVERSE CITY  CLOUDY    73  64  73 SW9G17    30.01R
LUDINGTON      CLOUDY    71  65  81 S13G18    30.03F
$$
MIZ007>008-015-261700-
EASTERN UPPER MICHIGAN

CITY           SKY/WX    TMP DP  RH WIND       PRES   REMARKS
KINROSS        LGT RAIN  65  64  97 S6        29.95F
MACKINAC ISLAN LGT RAIN  68  65  92 SW16G24   29.95F
NEWBERRY       CLOUDY    65  64  97 SW13G20   29.95R
S. S. MARIE    LGT RAIN  67  64  90 SW6       29.94F
$$
MIZ004>006-011>014-085-261700-
CENTRAL UPPER MICHIGAN

CITY           SKY/WX    TMP DP  RH WIND       PRES   REMARKS
MANISTIQUE     RAIN      66  63  89 S6        29.95S
ESCANABA       LGT RAIN  70  69  97 SW7       29.96S
MENOMINEE      LGT RAIN  68  67  96 S3        29.98F
SAWYER-GWINN   PTSUNNY   70  68  94 SW8       29.96F
$$
MIZ001>003-009>011-084-261700-
WESTERN UPPER MICHIGAN

CITY           SKY/WX    TMP DP  RH WIND       PRES   REMARKS
IRON MOUNTAIN  CLOUDY    71  65  81 W3        29.94F
HOUGHTON       SUNNY     75  59  57 W17       29.94S
COPPER HARBOR    N/A     72  58  61 N15G22    29.90S
IRONWOOD       MOSUNNY   74  62  66 NW8       29.99S
$$

ABBREVIATIONS USED IN REMARKS
   TC - TEMPERATURE IN CELSIUS
  WCI - WIND CHILL INDEX
   HX - HEAT INDEX
  VSB - VISIBILITY




USA.gov is the U.S. government's official web portal to all federal, state and local government web resources and services.